RH
17 16 18 21 20 19 16 16 18 20 19 19 22 23 22 25 28 30 32 33 30 29 29 30 29 28 27 26 26 29 30 28 26 32 39 32 27 27 24 24 26 28 26
26 25 25 24 19 15 15 16 16 15 17 18 20 22 21 21 23 22 23 26 36 41 37 34 37 39 38 34 36 36 36 34 32 34 36 30 32 34 32 31 32 30 31
24 24 25 22 18 17 18 18 20 21 19 20 19 19 18 18 20 24 28 26 24 21 23 35 41 42 37 46 51 45 44 46 48 46 44 42 38 37 36 37 36 35 36
23 21 21 21 21 20 19 19 20 20 21 21 20 20 20 20 22 27 29 31 34 32 30 25 25 32 35 45 51 61 64 56 55 59 58 63 54 47 43 44 42 44 44
36 29 21 20 21 20 20 21 21 19 19 21 21 20 21 22 23 23 27 33 39 42 39 44 47 54 63 57 50 62 63 65 70 68 72 70 69 56 54 50 49 50 55
29 31 31 28 26 24 22 23 22 23 22 25 26 24 23 23 24 22 20 23 28 29 39 41 54 71 68 60 69 84 76 66 61 60 68 58 67 64 54 55 50 53 67
34 34 35 33 34 31 28 29 30 27 27 31 29 25 24 27 26 25 23 24 25 29 32 42 49 48 68 83 85 84 84 88 88 89 86 80 72 80 77 82 77 80 76
34 33 31 33 29 30 33 36 34 34 37 34 32 32 32 32 30 29 30 30 32 34 37 40 46 60 76 86 94 96 100 100 94 96 100 100 97 94 87 80 89 86 92
29 30 28 29 35 35 30 33 37 38 38 38 38 35 33 34 31 31 30 29 30 32 37 38 43 50 61 81 92 100 100 100 99 98 95 96 97 100 100 93 97 98 100
26 27 25 30 35 34 35 37 44 43 40 40 38 34 34 34 32 31 29 24 23 25 27 36 46 47 51 65 78 95 94 85 99 100 99 99 100 87 82 82 66 73 81
26 24 22 26 28 26 27 26 26 32 39 36 31 34 34 32 28 25 21 18 18 20 29 35 41 48 50 50 52 67 89 99 100 97 99 100 96 96 93 100 98 84 60
27 24 29 28 24 24 27 26 24 28 30 32 31 25 22 23 20 21 20 19 20 20 27 30 33 35 38 37 38 47 56 68 79 83 86 87 99 97 100 100 94 92 91
34 34 31 28 30 34 34 34 34 32 31 30 25 27 24 26 27 24 21 18 17 17 19 22 23 25 26 25 24 24 23 23 28 40 62 85 100 100 95 86 75 56 54
54 54 45 41 44 44 44 38 31 31 31 29 28 28 30 28 26 25 19 16 15 15 15 16 16 15 16 18 17 18 17 17 18 16 16 18 21 36 41 29 30 42 51
54 48 42 38 36 41 41 39 36 33 36 37 34 31 28 26 23 21 19 15 14 15 15 15 14 14 13 13 13 15 17 16 15 14 14 14 16 17 21 29 35 34 35
46 48 44 43 43 43 43 41 37 35 33 32 30 25 24 20 18 17 15 14 13 14 14 18 21 20 20 17 15 14 15 18 17 16 15 17 17 15 17 19 19 20 19
47 43 50 43 41 43 39 35 31 30 26 25 25 22 21 19 17 16 16 16 16 15 15 16 19 22 22 20 18 17 17 18 17 17 17 18 18 17 19 20 20 23 23
47 47 42 43 58 45 42 39 33 32 29 28 28 32 30 23 19 20 21 24 24 24 23 23 20 20 21 23 22 21 22 22 21 20 20 21 20 20 21 21 20 22 21
56 51 46 49 50 59 55 41 43 43 49 42 40 40 42 42 34 29 27 30 35 32 30 28 25 20 18 22 29 32 27 23 22 22 21 22 22 22 23 22 22 20 20
71 63 61 63 59 52 59 69 70 70 67 69 69 66 53 52 51 44 44 46 42 35 32 30 29 26 22 19 20 25 32 34 31 30 28 24 24 25 24 23 22 21 22
78 79 78 67 54 59 63 63 66 67 73 69 48 74 89 79 51 69 68 56 59 47 34 33 33 33 29 26 23 21 24 28 37 45 39 32 34 37 32 27 26 27 24
86 84 86 67 60 64 67 71 66 65 72 75 77 76 59 57 95 100 98 73 56 54 48 43 33 28 28 32 30 25 24 27 33 39 46 46 43 38 34 32 31 36 38
100 99 79 66 52 67 80 76 76 64 71 82 86 82 78 80 81 89 86 93 82 66 54 40 30 30 31 31 31 31 30 28 27 35 41 44 50 55 47 41 39 44 52
97 84 76 70 62 66 78 85 82 70 57 52 56 65 72 87 100 100 98 100 87 78 60 41 34 39 34 31 30 31 34 34 32 34 39 53 62 69 69 62 60 60 60
76 73 72 73 74 77 75 71 79 82 71 72 63 61 70 80 90 100 100 91 81 70 69 55 48 47 43 36 35 34 34 33 32 38 45 46 49 53 63 67 70 73 68
72 70 76 75 73 70 68 69 78 82 85 80 70 67 64 79 91 92 94 94 69 63 75 85 72 59 50 48 49 44 37 38 39 35 38 45 48 48 50 59 80 92 94
Wind_Speed
39 40 39 34 33 33 31 32 35 36 35 35 37 38 38 35 34 33 32 33 34 36 38 41 42 43 44 43 43 44 45 46 47 47 47 47 47 49 49 50 48 49 49
43 41 41 40 38 38 37 36 37 37 38 38 38 38 39 39 38 39 37 36 36 37 39 41 44 46 46 47 48 48 49 50 50 50 50 51 51 52 51 48 49 49 49
47 46 47 46 44 42 43 43 42 42 42 42 42 43 43 44 43 43 42 41 41 44 44 44 45 47 48 48 50 51 52 54 54 53 53 54 53 52 51 51 50 50 50
51 52 50 49 49 49 48 49 48 47 47 46 46 47 47 46 47 47 47 48 49 50 51 51 52 52 52 52 51 51 52 55 56 56 55 55 54 54 53 53 54 53 55
54 53 54 55 55 55 54 53 53 53 50 48 48 49 50 50 50 52 53 54 56 56 56 57 58 56 55 57 57 56 56 56 56 59 59 57 57 57 56 56 56 56 57
57 57 58 58 58 58 57 56 56 55 54 52 52 54 54 53 54 54 57 58 59 61 62 63 62 63 63 61 60 59 62 61 60 58 60 59 60 59 59 60 59 59 58
60 60 60 58 58 58 57 57 57 56 56 56 56 57 58 57 60 63 63 63 64 66 68 68 68 69 68 66 65 66 65 66 69 67 64 64 66 67 67 66 65 67 65
61 61 61 59 57 59 58 58 58 59 60 61 62 62 63 63 65 64 65 67 70 72 73 74 74 73 73 71 71 71 72 72 70 70 70 71 70 71 70 71 71 73 73
61 61 60 61 61 61 60 62 62 62 66 67 67 69 69 67 68 70 71 72 73 74 77 78 79 79 79 76 75 73 74 75 75 74 72 71 73 74 74 76 76 76 72
62 61 62 64 64 65 65 65 69 67 69 71 71 68 67 69 71 72 76 76 75 78 79 81 81 81 82 82 80 79 78 79 75 77 76 76 77 74 76 75 75 71 72
65 65 64 65 67 68 68 67 67 69 70 71 71 71 72 75 76 78 79 81 84 84 82 82 82 83 83 83 82 80 83 83 82 83 77 78 73 69 65 69 69 71 72
68 67 68 70 71 71 71 71 71 71 72 73 75 77 79 79 79 79 80 81 80 82 83 82 82 82 81 79 81 80 84 85 86 82 82 83 81 79 77 80 82 80 74
71 71 71 70 72 72 73 72 74 75 76 77 78 79 81 80 78 80 81 81 83 82 81 80 80 78 80 79 78 76 77 79 81 82 86 84 86 84 87 89 90 91 85
72 74 74 74 75 76 75 76 78 78 79 79 80 82 81 82 81 81 81 80 77 75 74 75 74 73 73 73 72 70 70 70 69 71 73 73 75 79 82 82 81 76 76
71 72 75 75 75 74 74 77 78 78 78 78 78 80 79 78 79 80 80 76 73 71 70 69 71 71 72 73 72 70 70 69 67 66 67 66 65 67 68 68 68 69 69
74 71 71 70 70 70 72 73 74 75 75 77 78 77 75 75 76 75 73 69 71 69 67 67 68 68 69 71 72 72 73 72 71 69 67 64 63 62 63 62 61 59 57
72 70 67 70 69 68 69 72 73 73 74 73 73 74 73 72 72 69 67 68 69 66 66 66 66 67 69 70 71 72 73 74 73 72 70 67 63 62 62 62 60 58 59
70 69 69 67 65 68 67 67 69 67 68 65 67 66 67 67 67 65 64 65 65 65 66 65 65 65 65 68 71 71 72 74 75 74 72 70 67 65 64 63 61 60 60
69 70 68 65 64 66 67 68 67 65 60 60 60 62 63 63 62 62 64 64 63 64 64 65 66 66 66 66 68 70 70 71 73 75 75 73 71 70 68 66 64 63 60
71 71 68 66 65 67 68 64 61 58 58 56 55 57 58 56 55 57 59 62 62 64 64 65 66 67 67 68 68 68 69 70 72 74 75 75 74 74 72 71 70 67 66
76 72 72 70 67 68 67 66 64 61 61 64 63 60 55 54 54 50 53 54 55 59 60 62 65 66 67 67 68 68 69 69 71 72 73 74 74 75 75 75 73 72 70
80 79 79 75 68 65 65 68 67 64 60 65 64 64 63 59 51 56 54 54 55 58 59 58 60 62 63 65 67 68 68 68 68 70 72 73 74 76 77 77 76 74 73
81 84 84 82 78 72 69 69 71 68 67 64 69 68 60 53 56 60 58 57 57 58 58 58 60 59 60 61 64 67 68 68 67 69 71 72 72 74 76 77 78 77 76
89 88 87 87 85 79 74 70 71 71 69 71 73 71 63 59 53 58 62 61 60 60 60 63 61 60 60 61 62 63 64 68 69 70 70 72 74 75 77 77 79 80 81
94 93 91 90 88 85 79 73 71 71 70 71 72 68 65 64 63 62 66 65 64 64 64 64 63 62 62 61 59 59 61 64 68 70 73 74 76 76 78 80 81 82 83
98 97 96 95 93 91 86 79 73 68 70 71 72 71 65 64 66 67 67 71 67 67 64 65 67 66 65 61 60 60 62 62 63 66 70 73 77 81 82 82 82 84 85
Wind_Direction
236 245 253 253 247 254 257 254 257 260 260 258 259 261 263 263 264 268 271 273 273 274 275 276 276 277 277 277 276 277 278 277 279 280 281 282 282 285 286 287 285 285 287
249 252 252 254 254 255 258 261 262 261 261 261 259 261 262 263 265 264 265 268 269 271 274 275 275 275 277 278 277 277 277 278 277 278 280 283 283 286 285 284 286 286 289
253 254 256 258 260 260 263 267 269 269 269 266 262 262 264 264 267 269 271 273 273 274 272 271 272 273 275 277 278 280 281 281 280 280 281 281 283 282 282 283 285 285 286
254 255 257 259 260 264 265 268 269 269 269 268 271 271 270 270 270 271 274 276 277 280 280 278 275 275 277 276 278 278 279 280 281 282 282 284 282 282 282 284 284 284 285
255 256 256 259 259 262 264 267 269 269 268 268 271 272 270 270 271 274 276 277 279 280 280 281 278 276 275 277 279 278 278 278 280 282 282 283 284 284 284 286 285 285 286
257 257 257 259 261 262 264 265 267 268 267 269 275 277 276 276 277 278 279 279 278 280 280 280 278 278 279 277 276 278 280 280 280 281 282 284 284 284 283 283 285 284 286
258 259 259 259 261 263 264 266 268 267 268 273 277 278 277 276 280 282 283 281 281 281 280 279 278 277 278 279 279 280 280 279 280 280 280 280 282 282 282 282 285 285 286
260 258 259 259 261 264 265 265 267 265 266 272 274 276 277 276 277 278 280 280 280 281 280 280 280 278 278 279 279 280 278 278 280 280 278 278 280 280 282 284 285 284 287
258 261 260 262 262 265 267 267 267 266 265 270 273 275 276 276 277 279 280 280 279 278 278 279 279 280 278 277 277 277 277 277 277 279 280 280 280 281 281 283 283 286 287
263 262 263 263 264 266 267 266 265 267 268 272 273 273 274 273 275 277 278 280 280 280 278 276 275 277 277 277 278 278 279 278 278 279 281 281 279 281 278 281 279 282 286
263 264 264 265 266 267 267 268 268 267 268 271 272 273 274 274 276 278 278 279 279 278 276 275 276 276 276 275 276 276 276 276 277 278 280 281 281 277 276 282 285 285 289
266 266 264 264 266 266 266 267 269 268 268 270 272 274 275 276 277 278 278 278 278 277 276 276 275 274 274 275 275 274 275 276 276 277 278 280 278 277 278 281 282 284 282
264 264 265 267 267 267 268 268 269 269 269 271 273 275 277 277 276 276 277 276 277 277 276 275 275 274 274 275 275 275 275 276 274 274 273 274 274 276 277 282 282 283 281
264 264 265 267 267 269 270 270 270 270 271 273 274 274 275 276 275 276 275 275 276 275 275 274 275 275 275 274 276 276 277 277 277 279 278 278 278 278 279 280 281 284 283
266 268 269 269 270 270 272 271 271 273 273 273 274 275 274 274 273 273 273 273 272 274 275 275 275 275 274 274 274 275 276 278 278 280 280 281 281 281 281 281 282 282 282
265 267 269 269 270 271 271 272 272 271 272 273 273 274 273 272 272 271 272 272 273 274 274 274 275 275 276 276 276 276 276 277 278 280 280 281 281 281 281 282 282 284 285
265 266 267 271 271 272 274 274 275 274 274 276 274 274 271 271 272 272 273 273 272 272 272 272 274 275 276 277 277 277 277 277 278 279 280 280 280 281 280 281 282 282 282
265 268 271 272 272 275 277 281 281 280 281 279 275 273 272 270 271 271 272 272 274 274 274 273 273 272 273 275 275 276 276 277 277 278 278 279 279 279 279 279 280 280 281
267 269 270 273 274 277 278 282 282 281 279 276 275 273 272 272 271 272 272 272 272 273 274 273 273 274 274 274 275 276 276 275 275 275 276 276 276 276 277 278 278 278 280
269 271 272 275 277 277 278 275 272 270 272 271 272 270 271 275 276 273 274 274 274 274 273 273 274 275 274 274 275 275 276 276 275 275 274 275 275 275 275 275 276 277 277
268 267 268 274 275 273 269 268 266 265 266 270 274 272 274 276 279 278 276 277 277 277 276 277 276 276 275 275 275 275 275 275 275 274 274 273 273 273 275 275 276 276 276
267 267 269 271 269 267 266 265 265 267 268 268 270 271 273 273 278 280 279 280 282 279 279 279 281 280 278 276 276 276 276 275 274 274 273 273 273 273 273 274 274 274 274
265 268 269 270 268 265 266 267 268 267 268 266 265 267 270 272 270 272 274 280 282 284 283 285 286 286 283 280 276 275 275 276 276 275 274 274 274 274 273 273 274 274 273
266 268 270 270 269 266 265 266 268 268 264 263 265 266 264 267 264 269 271 275 276 280 282 288 291 292 290 284 282 278 277 276 275 275 275 275 274 273 274 274 273 274 274
264 265 267 267 268 268 265 265 265 268 267 263 262 263 262 263 266 265 272 271 274 279 282 288 291 293 294 291 286 283 281 279 276 275 274 273 274 274 273 272 272 272 272
266 265 263 264 264 265 264 265 263 266 267 265 264 264 263 262 263 262 266 272 274 278 281 286 291 294 296 293 288 285 284 282 282 279 276 275 274 275 274 272 271 271 272